WetterOnline ( https://www.wetteronline.at )

Wetter aktuell Tuttlingen

Aktuelles Wetter: Messstetten (900m)

6-stündlich | Neueste Meldungen
Ortszeit Temperatur Wetter
Do, 24.10. 2:00 11.3° C bedeckt
Mi, 23.10. 20:00 10.8° C wolkig
Mi, 23.10. 14:00 16.8° C leicht bewölkt
Mi, 23.10. 8:00 7.2° C Nebel
Mi, 23.10. 2:00 9.6° C bedeckt
Di, 22.10. 20:00 7.5° C Nebel
Di, 22.10. 14:00 13.1° C bedeckt
Di, 22.10. 8:00 7.8° C wolkig
Ortszeit Temperatur Wetter
Do, 24.10. 3:30 10.5° C bedeckt
Do, 24.10. 3:20 10.5° C bedeckt
Do, 24.10. 3:10 10.4° C bedeckt
Do, 24.10. 3:00 12.2° C bedeckt
Do, 24.10. 2:50 12.2° C bedeckt
Do, 24.10. 2:40 12.0° C bedeckt
Do, 24.10. 2:30 12.1° C bedeckt
Do, 24.10. 2:00 11.3° C bedeckt
Do, 24.10. 1:30 11.2° C bedeckt
Do, 24.10. 1:00 10.5° C bewölkt
Do, 24.10. 0:30 10.9° C bedeckt
Ortszeit Relative Feuchte Sichtweite
Do, 24.10. 2:00 75% 55 km
Mi, 23.10. 20:00 90% 15 km
Mi, 23.10. 14:00 61% 55 km
Mi, 23.10. 8:00 100% 0.4 km
Mi, 23.10. 2:00 99% 1.5 km
Di, 22.10. 20:00 99% 100 m
Di, 22.10. 14:00 81% 45 km
Di, 22.10. 8:00 98% 12 km
Ortszeit Relative Feuchte Sichtweite
Do, 24.10. 3:30 75% 55 km
Do, 24.10. 3:20 75% -
Do, 24.10. 3:10 78% -
Do, 24.10. 3:00 70% 60 km
Do, 24.10. 2:50 70% -
Do, 24.10. 2:40 70% -
Do, 24.10. 2:30 70% 65 km
Do, 24.10. 2:00 75% 55 km
Do, 24.10. 1:30 74% 60 km
Do, 24.10. 1:00 81% 40 km
Do, 24.10. 0:30 81% 35 km
Ortszeit Niederschlagsmenge Niederschlagsart
Do, 24.10. 2:00 0.0 l/m2 in 6 Std. -
Mi, 23.10. 20:00 0.0 l/m2 in 12 Std. -
Mi, 23.10. 14:00 0.1 l/m2 in 6 Std. -
Mi, 23.10. 8:00 0.0 l/m2 in 12 Std. -
Mi, 23.10. 2:00 0.0 l/m2 in 6 Std. -
Di, 22.10. 20:00 0.0 l/m2 in 12 Std. -
Di, 22.10. 14:00 0.0 l/m2 in 6 Std. -
Di, 22.10. 8:00 0.5 l/m2 in 12 Std. -
Ortszeit Niederschlagsmenge Niederschlagsart
Do, 24.10. 3:30 0.0 l/m2 in 1 Std. -
Do, 24.10. 3:20 keine Meldung -
Do, 24.10. 3:10 keine Meldung -
Do, 24.10. 3:00 0.0 l/m2 in 1 Std. -
Do, 24.10. 2:50 keine Meldung -
Do, 24.10. 2:40 keine Meldung -
Do, 24.10. 2:30 0.0 l/m2 in 1 Std. -
Do, 24.10. 2:00 0.0 l/m2 in 1 Std. -
Do, 24.10. 1:30 0.0 l/m2 in 1 Std. -
Do, 24.10. 1:00 0.0 l/m2 in 1 Std. -
Do, 24.10. 0:30 0.0 l/m2 in 1 Std. -
Ortszeit Stärke Spitze Richtung
km/h Bft. km/h Grad Sektor
Do, 24.10. 2:00 7 2 26 100° O
Mi, 23.10. 20:00 15 3 22 100° O
Mi, 23.10. 14:00 11 2 25 120° SO
Mi, 23.10. 8:00 13 3 24 100° O
Mi, 23.10. 2:00 14 3 29 100° O
Di, 22.10. 20:00 0 0 25 - -
Di, 22.10. 14:00 14 3 22 80° O
Di, 22.10. 8:00 7 2 18 110° O
Ortszeit Stärke Spitze Richtung
km/h Bft. km/h Grad Sektor
Do, 24.10. 3:30 2 1 7 260° W
Do, 24.10. 3:20 2 1 - 260° W
Do, 24.10. 3:10 2 1 - 170° S
Do, 24.10. 3:00 4 1 11 100° O
Do, 24.10. 2:50 4 1 - 100° O
Do, 24.10. 2:40 6 1 - 100° O
Do, 24.10. 2:30 6 1 11 100° O
Do, 24.10. 2:00 7 2 19 100° O
Do, 24.10. 1:30 4 1 18 120° SO
Do, 24.10. 1:00 13 3 20 110° O
Do, 24.10. 0:30 13 3 19 100° O
Ortszeit Untergrenze Bedeckung Gattung
total tief tief mittel hoch
Do, 24.10. 2:00 4500 m 8/8 8/8 - - -
Mi, 23.10. 20:00 8400 m 8/8 0/8 - - -
Mi, 23.10. 14:00 8700 m 5/8 0/8 - - -
Mi, 23.10. 8:00 <30 m 8/8 0/8 - - -
Mi, 23.10. 2:00 30 m 8/8 8/8 - - -
Di, 22.10. 20:00 <30 m 8/8 0/8 - - -
Di, 22.10. 14:00 450 m 8/8 8/8 - - -
Di, 22.10. 8:00 7500 m 8/8 0/8 - - -
Ortszeit Bedeckungsgrad in Achtel und Wolkenuntergrenze
Do, 24.10. 3:30 3(3900m) 8(4200m) 8(6000m)
Do, 24.10. 3:20 3(3900m) 8(4200m) 8(6000m)
Do, 24.10. 3:10 8(3900m) 8(6000m) 8(6900m)
Do, 24.10. 3:00 8(4200m) 8(5700m) 8(9000m)
Do, 24.10. 2:50 8(4200m) 8(5700m) 8(9000m)
Do, 24.10. 2:40 8(4200m) 8(5700m)
Do, 24.10. 2:30 7(3900m) 8(4200m) 8(6300m)
Do, 24.10. 2:00 5(4500m) 8(5400m) 8(8700m)
Do, 24.10. 1:30 6(4200m) 8(5100m) 8(8700m)
Do, 24.10. 1:00 7(4500m) 8(8100m) 8(8700m)
Do, 24.10. 0:30 8(4800m) 8(7200m) 8(8100m)
Ortszeit Stationsdruck (hPa) Tendenz (hPa in 3 Std.)
Do, 24.10. 2:00 909 - 0,6
Mi, 23.10. 20:00 910 - 0,5
Mi, 23.10. 14:00 912 - 0,9
Mi, 23.10. 8:00 914 - 1,0
Mi, 23.10. 2:00 916 - 1,9
Di, 22.10. 20:00 919 0,0
Di, 22.10. 14:00 920 - 0,2
Di, 22.10. 8:00 919 - 0,1
Ortszeit Stationsdruck (hPa) Tendenz (hPa in 3 Std.)
Do, 24.10. 3:30 908 - 0,4
Do, 24.10. 3:20 908 keine Meldung
Do, 24.10. 3:10 908 keine Meldung
Do, 24.10. 3:00 908 - 0,5
Do, 24.10. 2:50 908 keine Meldung
Do, 24.10. 2:40 908 keine Meldung
Do, 24.10. 2:30 908 - 0,6
Do, 24.10. 2:00 909 - 0,6
Do, 24.10. 1:30 909 - 1,1
Do, 24.10. 1:00 909 - 1,1
Do, 24.10. 0:30 909 - 1,2
Ortszeit Schneehöhe (cm)
Do, 24.10. 2:00 0
Mi, 23.10. 20:00 0
Mi, 23.10. 14:00 0
Mi, 23.10. 8:00 0
Mi, 23.10. 2:00 0
Di, 22.10. 20:00 0
Di, 22.10. 14:00 0
Di, 22.10. 8:00 0
Ortszeit Schneehöhe (cm)
Do, 24.10. 3:30 0
Do, 24.10. 3:20 0
Do, 24.10. 3:10 0
Do, 24.10. 3:00 0
Do, 24.10. 2:50 0
Do, 24.10. 2:40 0
Do, 24.10. 2:30 0
Do, 24.10. 2:00 0
Do, 24.10. 1:30 0
Do, 24.10. 1:00 0
Do, 24.10. 0:30 0
Link zu dieser Seite / Seite empfehlen

Das Wetter in ...